ワイズ彗星

C/2010 E3 ( WISE )

English version
Home page
Updated on March 20, 2010

---------------------------------------------------------------------

・ プロフィール

発見日 2010年3月5日
発見光度
発見者 Wide Field Infrared Survey Explorer (NASA)

・ 軌道要素

T 2010 Apr. 4.326 TT                                    MPC
q   2.27420              (2000.0)            P               Q
                   Peri.   49.974       -0.218474       +0.416021
                   Node   117.328       +0.257963       -0.847773
e   1.0            Incl.   96.480       +0.941129       +0.328949
From 26 observations 2010 Mar. 5-15.

・ 光度変化

        m1 = 15.5 + 5 logΔ + 10.0 log r

---------------------------------------------------------------------

軌道要素はM.P.E.C. 2010-F01に掲載されたものです。
光度グラフはComet for Windowsで作成したものです。

---------------------------------------------------------------------

Copyright(C) Seiichi Yoshida (comet@aerith.net). All rights reserved.